Location: Ca�n Batista
(41.4099°N, 1.7752°E)
Time: 13:20:51
(UTC+00:00)

Cosmos 2322 Rocket - Pass Details

Date: 03 March 2021
Orbit: 832 x 852 km, 71.0° (Epoch: 21 April)

Event Time Altitude Azimuth Distance (km) Brightness Sun altitude
Rises 19:04:28 0° 220° (SW) 3,363 5.8 -15.5°
Reaches altitude 10° 19:06:59 10° 226° (SW) 2,433 5.2 -16.0°
Maximum altitude 19:12:20 46° 299° (WNW) 1,109 3.3 -17.0°
Drops below altitude 10° 19:17:43 10° 13° (NNE) 2,452 4.6 -18.0°
Sets 19:20:17 0° 19° (NNE) 3,392 5.2 -18.4°
